Regional Weather Roundup
Issued by NWS Portland, ME

Current Version | Previous Version | Text Only | Print | Product List | Glossary Off
Versions: 1 2 3 4 5 6 7 8 9 10 11 12 13 14 15 16 17 18 19 20 21 22 23 24 25 26 27 28 29 30 31 32 33 34 35 36 37 38 39 40 41 42 43 44 45 46 47 48 49 50
000 ASUS41 KGYX 261810 RWRGYX WEATHER ROUNDUP FOR MAINE AND NEW HAMPSHIRE NATIONAL WEATHER SERVICE GRAY ME 200 PM EDT SUN MAR 26 2017 MEZ002-005-006-010-012-015-018-020-021-024-026-027-029-261900- MAINE CITY SKY/WX TMP DP RH WIND PRES REMARKS PORTLAND MOSUNNY 34 11 38 S7 30.56F 6HR MIN TEMP: 29; 6HR MAX TEMP: 35; SANFORD MOSUNNY 35 12 38 VRB6 30.54F BAR HARBOR SUNNY 35 6 29 S8 30.53F WISCASSET SUNNY 37 13 37 S8 30.55F 6HR MIN TEMP: 28; 6HR MAX TEMP: 38; ROCKLAND SUNNY 32 10 40 E9 30.54F FRYEBURG SUNNY 40 4 22 S9 30.49F 6HR MIN TEMP: 17; 6HR MAX TEMP: 41; 6HR PCP: TRACE; LEWISTONAUBURN SUNNY 38 3 23 S5 30.51F AUGUSTA SUNNY 35 1 23 CALM 30.51F 6HR MIN TEMP: 23; 6HR MAX TEMP: 37; WATERVILLE SUNNY 36 2 23 CALM 30.48F BANGOR MOSUNNY 34 0 23 E5 30.52F 6HR MIN TEMP: 22; 6HR MAX TEMP: 35; GREENVILLE N/A 30 -17 12 CALM 30.41F 6HR MIN TEMP: 14; 6HR MAX TEMP: 32; MILLINOCKET SUNNY 34 -7 17 VRB3 30.50F 6HR MIN TEMP: 18; 6HR MAX TEMP: 34; HOULTON SUNNY 29 0 28 NW3 30.48F 6HR MIN TEMP: 14; 6HR MAX TEMP: 29; PRESQUE ISLE SUNNY 27 0 31 SW3 30.50F 6HR MIN TEMP: 13; 6HR MAX TEMP: 27; FRENCHVILLE SUNNY 25 -4 28 W7 30.45F 6HR MIN TEMP: 10; 6HR MAX TEMP: 25; CARIBOU SUNNY 29 -1 27 VRB3 30.48F 6HR MIN TEMP: 12; 6HR MAX TEMP: 29; $$ NHZ002-005-008-009-011-012-014-261900- NEW HAMPSHIRE CITY SKY/WX TMP DP RH WIND PRES REMARKS PORTSMOUTH CLOUDY 35 19 51 E8 30.53F ROCHESTER MOSUNNY 37 15 40 VRB5 30.52F 6HR MIN TEMP: 27; 6HR MAX TEMP: 37; NASHUA CLOUDY 40 24 53 E9 30.51F MANCHESTER CLOUDY 38 21 50 E6 30.50F 6HR MIN TEMP: 26; 6HR MAX TEMP: 40; CONCORD CLOUDY 38 21 50 SE8 30.51F 6HR MIN TEMP: 24; 6HR MAX TEMP: 39; LACONIA CLOUDY 37 11 34 N7 30.49F PLYMOUTH PTSUNNY 40 10 30 E8 30.47F BERLIN SUNNY 42 0 17 VRB3 30.40F 6HR MIN TEMP: 4; 6HR MAX TEMP: 43; WHITEFIELD SUNNY 44 11 26 NE3 30.40F 6HR MIN TEMP: 6; 6HR MAX TEMP: 44; JAFFREY CLOUDY 35 21 56 S7 30.47F 6HR MIN TEMP: 24; 6HR MAX TEMP: 36; KEENE MIX PCPN 37 22 54 CALM 30.49F LEBANON CLOUDY 38 16 40 S10 30.46F 6HR MIN TEMP: 17; 6HR MAX TEMP: 39; MT WASHINGTON MOSUNNY 25 3 39 W18 N/A WCI 11 6HR MIN TEMP: 20; 6HR MAX TEMP: 26; $$ VTZ005-007-008-261900- VERMONT CITY SKY/WX TMP DP RH WIND PRES REMARKS ST JOHNSBURY N/A 40 13 33 MISG 30.41F MONTPELIER PTSUNNY 36 16 44 S7 30.44F BURLINGTON CLOUDY 39 18 42 SW8 30.41F $$ MAZ007-012-024-CTZ003-RIZ002-NYZ038-NYZ072-261900- SOUTHERN NEW ENGLAND AND NY CITY SKY/WX TMP DP RH WIND PRES REMARKS BOSTON LGT RAIN 38 26 62 E14 30.54F WORCESTER LGT RAIN 36 25 64 E6 30.46F NANTUCKET CLOUDY 40 26 57 E14 30.50S PROVIDENCE LGT RAIN 43 28 55 SE7 30.50F HARTFORD CLOUDY 38 29 70 N6 30.49F ALBANY DRIZZLE 37 28 70 S12 30.46S NEW YORK CITY CLOUDY 41 33 73 NE14 30.45F $$ ANZ081-ANZ082-ANZ150-NHZ014-MEZ023>029-261900- COASTAL MARINE OBSERVATIONS STATION/POSITION TIME TEMP WIND PRES WAVE AIR SEA DIR/SP/G HT/PER (UTC) (F) (DEG/KT/KT) (MB) (FT/S) MOUNT DESERT ROC 1800 31 1034.7F MATINICUS ROCK 1700 31 70/ 5/ 5 1034.9F ISLE OF SHOALS 1700 34 70/ 13/ 14 1034.6F JEFFREYS LEDGE 1706 42 N/A 4/ 5 CASHES LEDGE BUO 1750 35 40 1035.0F 4/ 6 GEORGES BANK BUO 1750 37 40 1033.0R 4/ 5 $$ .............KEY.............. WCI - WIND CHILL TC - TEMPERATURE IN CELSIUS VSB - VISIBILITY IN MILES HX - HEAT INDEX FAIR- INDICATES FEW OR NO CLOUDS BELOW 12,000 FT, WITH NO SIGNIFICANT WEATHER AND/OR OBSTRUCTIONS TO VISIBILITY.

USA.gov is the U.S. government's official web portal to all federal, state and local government web resources and services.